Regional Weather Roundup
Issued by NWS Jackson, KY

Home | Current Version | Previous Version | Graphics & Text | Print | Product List | Glossary On
Versions: 1 2 3 4 5 6 7 8 9 10 11 12 13 14 15 16 17 18 19 20 21 22 23 24 25 26 27 28 29 30 31 32 33 34 35 36 37 38 39 40 41 42 43 44 45 46 47 48 49 50
000
ASUS43 KJKL 020810
RWRJKL

EAST KENTUCKY HOURLY WEATHER ROUNDUP
NATIONAL WEATHER SERVICE JACKSON KY
400 AM EDT TUE JUN 02 2015

NOTE: "FAIR" INDICATES FEW OR NO CLOUDS BELOW 12,000 FEET WITH
NO SIGNIFICANT WEATHER AND/OR OBSTRUCTIONS TO VISIBILITY.

* THESE REPORTS ARE NOT UNDER NWS QUALITY CONTROL AND MAY NOT
  REPORT WEATHER SUCH AS PRECIPITATION AND FOG.

KYZ079-080-083-085-087-088-110-112-115-119-120-020900
...EASTERN KENTUCKY...

CITY           SKY/WX    TMP DP  RH WIND       PRES   REMARKS
JACKSON        CLOUDY    53  52  96 CALM      30.08F FOG
LONDON         CLOUDY    58  53  84 NE6       30.08S
SOMERSET*      DRIZZLE   54  54 100 NE3       30.09F
MONTICELLO*    CLOUDY    58  58 100 NE6       30.09F FOG
MIDDLESBORO*   CLOUDY    62  60  93 NE5       30.06R
HARLAN APT*    CLOUDY    59  57  94 CALM      30.06S
HAZARD APT*    CLOUDY    55  55 100 N3        30.09R FOG
BLACK MTN*       N/A     55  55 100 VRB1        N/A
PIKEVILLE APT* FOG       54  54 100 N5        30.08F VSB 1/4
MOREHEAD APT*  CLOUDY    54  52  94 CALM      30.13R
$$

KYZ035-036-041-042-044-050-067-078-099-020900
...CENTRAL KENTUCKY...

CITY           SKY/WX    TMP DP  RH WIND       PRES   REMARKS
MT STERLING*   CLOUDY    54  52  94 E6        30.11F
FLEMING/MASON* CLOUDY    54  52  94 NE3       30.12S
DANVILLE*      CLOUDY    52  52 100 NE7       30.10S
RICHMOND*      CLOUDY    54  52  94 NE3       30.09S
LEXINGTON      CLOUDY    55  52  89 NE10      30.09F
FRANKFORT      CLOUDY    55  52  89 NE7       30.08F FOG
$$

KYZ091>093-OHZ055-061-077-WVZ005-015-034-035-042-020900
...SOUTHERN OHIO/WEST VIRGINIA...

CITY           SKY/WX    TMP DP  RH WIND       PRES   REMARKS
COVINGTON      CLOUDY    54  49  83 NE8       30.11F
COLUMBUS       CLOUDY    52  47  83 NE6       30.12S
DAYTON         MOCLDY    49  47  93 N5        30.14F
WILMINGTON     CLOUDY    51  47  86 NE8       30.12S
HUNTINGTON     CLOUDY    53  53 100 CALM      30.09F FOG
CHARLESTON     CLOUDY    55  53  93 CALM      30.07F FOG
PINEVILLE*     CLOUDY    61  61 100 MISG      30.10S FOG
BECKLEY        FOG       58  57  97 N7        30.07S VSB 1/2
BLUEFIELD      CLOUDY    63  58  83 CALM      30.08F HAZE
$$

VAZ002-007-008-TNZ017-027-036-066-071-020900
...SOUTHWEST VIRGINIA/EAST TENNESSEE...

CITY           SKY/WX    TMP DP  RH WIND       PRES   REMARKS
WISE*          FOG       59  59 100 N3        30.09S VSB<1/4
JONESVILLE*    CLOUDY    63  63 100 CALM      30.06S
ABINGDON*      CLOUDY    63  63 100 CALM      30.05S
BRISTOL        MOCLDY    61  61 100 CALM      30.03S FOG
KNOXVILLE      MOCLDY    64  61  90 SW5       30.02S
OAK RIDGE      CLOUDY    66  63  90 CALM      30.04S
CROSSVILLE     CLOUDY    64  61  90 NE3       30.06F
NASHVILLE      CLOUDY    62  60  93 N6        30.06F
$$

...KEY TO REMARKS...
VSB - VISIBILITY IN MILES
WCI - WIND CHILL INDEX
HX  - HEAT INDEX

$$



USA.gov is the U.S. government's official web portal to all federal, state and local government web resources and services.